TimeCST,TemperatureF,Dew PointF,Humidity,Sea Level PressureIn,VisibilityMPH,Wind Direction,Wind SpeedMPH,Gust SpeedMPH,PrecipitationIn,Events,Conditions,WindDirDegrees,DateUTC
12:15 AM,62.6,60.8,94,30.16,1.0,Calm,Calm,-,N/A,,Overcast,0,2012-12-05 06:15:00
12:35 AM,62.6,60.8,94,30.16,1.5,North,3.5,-,N/A,,Overcast,350,2012-12-05 06:35:00
12:55 AM,62.6,60.8,94,30.17,2.0,North,3.5,-,N/A,,Overcast,360,2012-12-05 06:55:00
1:15 AM,62.6,59.0,88,30.18,8.0,WNW,3.5,-,N/A,,Overcast,300,2012-12-05 07:15:00
1:55 AM,60.8,59.0,94,30.16,8.0,NNE,4.6,-,N/A,,Overcast,30,2012-12-05 07:55:00
2:15 AM,60.8,59.0,94,30.16,5.0,Calm,Calm,-,N/A,,Overcast,0,2012-12-05 08:15:00
2:35 AM,60.8,59.0,94,30.17,5.0,Calm,Calm,-,N/A,,Mostly Cloudy,0,2012-12-05 08:35:00
2:55 AM,60.8,59.0,94,30.16,3.0,Calm,Calm,-,N/A,,Overcast,0,2012-12-05 08:55:00
3:15 AM,60.8,59.0,94,30.16,3.0,Calm,Calm,-,N/A,,Mostly Cloudy,0,2012-12-05 09:15:00
3:35 AM,60.8,59.0,94,30.16,2.5,Calm,Calm,-,N/A,,Mostly Cloudy,0,2012-12-05 09:35:00
3:55 AM,60.8,59.0,94,30.16,2.5,ESE,4.6,-,N/A,,Overcast,110,2012-12-05 09:55:00
4:15 AM,60.8,59.0,94,30.15,1.8,North,4.6,-,N/A,,Overcast,360,2012-12-05 10:15:00
4:35 AM,60.8,59.0,94,30.14,1.8,NNE,3.5,-,N/A,,Overcast,20,2012-12-05 10:35:00
4:55 AM,60.8,57.2,88,30.15,2.0,Calm,Calm,-,N/A,,Overcast,0,2012-12-05 10:55:00
5:15 AM,60.8,57.2,88,30.15,0.5,Calm,Calm,-,N/A,,Overcast,0,2012-12-05 11:15:00
5:35 AM,60.8,57.2,88,30.15,0.5,Calm,Calm,-,N/A,,Mostly Cloudy,0,2012-12-05 11:35:00
5:55 AM,60.8,57.2,88,30.16,4.0,North,3.5,-,N/A,,Mostly Cloudy,350,2012-12-05 11:55:00
6:15 AM,60.8,57.2,88,30.16,7.0,Calm,Calm,-,N/A,,Overcast,0,2012-12-05 12:15:00
6:35 AM,60.8,57.2,88,30.16,7.0,Calm,Calm,-,N/A,,Overcast,0,2012-12-05 12:35:00
6:55 AM,60.8,57.2,88,30.17,1.8,Calm,Calm,-,N/A,,Overcast,0,2012-12-05 12:55:00
8:35 AM,60.8,57.2,88,30.19,9.0,North,6.9,-,N/A,,Overcast,350,2012-12-05 14:35:00
8:55 AM,60.8,57.2,88,30.20,7.0,North,4.6,-,N/A,,Overcast,360,2012-12-05 14:55:00
9:15 AM,60.8,57.2,88,30.20,7.0,North,6.9,-,N/A,,Overcast,360,2012-12-05 15:15:00
9:35 AM,60.8,57.2,88,30.20,3.0,North,4.6,-,N/A,,Overcast,10,2012-12-05 15:35:00
10:15 AM,60.8,59.0,94,30.19,1.5,NE,3.5,-,N/A,,Overcast,40,2012-12-05 16:15:00
10:35 AM,62.6,59.0,88,30.18,1.2,NNE,4.6,-,N/A,,Overcast,30,2012-12-05 16:35:00
10:55 AM,62.6,60.8,94,30.17,3.0,North,3.5,-,N/A,,Overcast,10,2012-12-05 16:55:00
11:15 AM,62.6,60.8,94,30.16,10.0,NE,3.5,-,N/A,,Overcast,40,2012-12-05 17:15:00
11:35 AM,64.4,60.8,88,30.15,10.0,NNE,4.6,-,N/A,,Overcast,20,2012-12-05 17:35:00
11:55 AM,64.4,60.8,88,30.14,10.0,North,5.8,-,N/A,,Overcast,360,2012-12-05 17:55:00
12:16 PM,66.2,60.8,83,30.13,10.0,North,5.8,-,N/A,,Overcast,360,2012-12-05 18:16:00
12:35 PM,66.2,60.8,83,30.12,10.0,North,5.8,-,N/A,,Overcast,350,2012-12-05 18:35:00
12:55 PM,64.4,60.8,88,30.11,10.0,NNW,8.1,-,N/A,,Overcast,340,2012-12-05 18:55:00
1:15 PM,64.4,60.8,88,30.11,10.0,North,4.6,-,N/A,,Mostly Cloudy,350,2012-12-05 19:15:00
1:35 PM,66.2,60.8,83,30.10,10.0,North,3.5,-,N/A,,Mostly Cloudy,360,2012-12-05 19:35:00
1:55 PM,66.2,60.8,83,30.09,10.0,Calm,Calm,-,N/A,,Mostly Cloudy,0,2012-12-05 19:55:00
2:15 PM,66.2,62.6,88,30.09,10.0,North,4.6,-,N/A,,Scattered Clouds,10,2012-12-05 20:15:00
2:35 PM,66.2,62.6,88,30.09,10.0,NNE,5.8,-,N/A,,Scattered Clouds,20,2012-12-05 20:35:00
2:55 PM,66.2,60.8,83,30.08,10.0,North,8.1,-,N/A,,Mostly Cloudy,360,2012-12-05 20:55:00
3:15 PM,66.2,60.8,83,30.08,10.0,North,8.1,-,N/A,,Mostly Cloudy,350,2012-12-05 21:15:00
3:35 PM,66.2,60.8,83,30.08,10.0,North,9.2,-,N/A,,Mostly Cloudy,10,2012-12-05 21:35:00
3:55 PM,66.2,60.8,83,30.08,10.0,North,8.1,-,N/A,,Mostly Cloudy,360,2012-12-05 21:55:00
4:15 PM,64.4,60.8,88,30.09,10.0,North,6.9,-,N/A,,Scattered Clouds,360,2012-12-05 22:15:00
4:35 PM,64.4,60.8,88,30.09,10.0,North,9.2,-,N/A,,Scattered Clouds,10,2012-12-05 22:35:00
4:55 PM,64.4,60.8,88,30.09,10.0,North,6.9,-,N/A,,Mostly Cloudy,10,2012-12-05 22:55:00
5:15 PM,62.6,60.8,94,30.09,8.0,North,6.9,-,N/A,,Mostly Cloudy,10,2012-12-05 23:15:00
5:35 PM,62.6,60.8,94,30.09,7.0,NNE,5.8,-,N/A,,Mostly Cloudy,20,2012-12-05 23:35:00
6:15 PM,62.6,60.8,94,30.10,6.0,NNE,5.8,-,N/A,,Partly Cloudy,20,2012-12-06 00:15:00
6:35 PM,62.6,60.8,94,30.10,7.0,NE,4.6,-,N/A,,Partly Cloudy,40,2012-12-06 00:35:00
6:55 PM,62.6,59.0,88,30.10,6.0,North,5.8,-,N/A,,Partly Cloudy,10,2012-12-06 00:55:00
7:15 PM,62.6,59.0,88,30.10,5.0,North,5.8,-,N/A,,Mostly Cloudy,10,2012-12-06 01:15:00
7:35 PM,62.6,59.0,88,30.11,5.0,North,5.8,-,N/A,,Overcast,360,2012-12-06 01:35:00
7:55 PM,62.6,59.0,88,30.11,5.0,North,6.9,-,N/A,,Overcast,10,2012-12-06 01:55:00
8:15 PM,62.6,59.0,88,30.11,5.0,NNE,5.8,-,N/A,,Overcast,20,2012-12-06 02:15:00
8:35 PM,62.6,59.0,88,30.11,5.0,North,6.9,-,N/A,,Overcast,10,2012-12-06 02:35:00
8:55 PM,62.6,59.0,88,30.11,5.0,NNE,4.6,-,N/A,,Overcast,30,2012-12-06 02:55:00
9:15 PM,62.6,59.0,88,30.10,5.0,Calm,Calm,-,N/A,,Overcast,0,2012-12-06 03:15:00
9:35 PM,62.6,59.0,88,30.10,6.0,ENE,3.5,-,N/A,,Overcast,70,2012-12-06 03:35:00
9:55 PM,62.6,59.0,88,30.09,6.0,ENE,3.5,-,N/A,,Overcast,70,2012-12-06 03:55:00
10:15 PM,62.6,59.0,88,30.10,5.0,NE,4.6,-,N/A,,Overcast,50,2012-12-06 04:15:00
10:35 PM,62.6,59.0,88,30.09,5.0,NNE,4.6,-,N/A,,Overcast,30,2012-12-06 04:35:00
11:15 PM,62.6,59.0,88,30.09,4.0,ENE,3.5,-,N/A,,Overcast,70,2012-12-06 05:15:00
11:35 PM,62.6,59.0,88,30.08,4.0,ENE,3.5,-,N/A,,Overcast,60,2012-12-06 05:35:00
11:55 PM,60.8,57.2,88,30.07,4.0,NNE,5.8,-,N/A,,Mostly Cloudy,30,2012-12-06 05:55:00